SCP
0 0 0 0 0 0 0 0 0 0 0 1 1 1 1 1 1 1 1 1 1 0 0 0 1 1 1 1 1 0 0 0 0 0 0 0 0 0 0 0 0 0 0 0 1 1 1 1 1
0 0 0 0 0 0 0 0 0 0 0 1 1 1 1 1 1 1 1 1 1 0 1 1 1 1 1 1 1 1 1 0 0 0 0 0 0 0 0 0 0 0 0 1 1 1 1 1 1
0 0 0 0 0 0 0 0 0 0 1 1 1 1 1 1 1 1 1 1 1 1 1 1 1 1 1 1 1 1 1 1 0 0 0 0 0 0 0 0 0 0 0 1 1 1 1 1 1
0 0 0 0 0 0 0 0 0 0 0 0 0 1 1 1 1 1 1 1 1 1 1 1 1 1 1 1 1 1 1 0 0 0 0 0 0 0 0 0 0 0 0 1 1 1 1 1 0
0 0 0 0 0 0 0 0 0 0 0 0 0 0 1 0 1 1 1 1 1 1 1 1 1 1 1 1 1 1 1 0 0 0 0 0 0 0 0 0 0 0 0 1 1 1 1 0 0
0 0 0 0 0 0 0 0 0 0 0 0 0 0 0 0 0 1 1 1 1 1 1 1 1 1 1 1 1 1 1 0 0 0 0 0 0 0 0 0 0 1 1 1 1 1 1 0 0
0 0 0 0 0 0 0 0 0 0 0 0 0 0 0 0 0 1 1 1 1 1 1 1 1 1 1 1 1 1 0 0 0 0 0 0 0 0 0 0 0 1 1 1 1 1 1 0 0
0 0 0 0 0 0 0 0 0 0 0 0 0 0 0 1 1 1 1 1 1 1 1 1 1 1 0 0 0 0 0 0 0 0 0 0 0 0 0 0 0 1 1 1 1 1 0 0 0
0 0 0 0 0 0 0 0 0 0 0 0 0 0 1 1 1 1 1 1 2 1 1 1 1 1 0 0 0 0 0 0 0 0 0 0 0 0 0 0 0 0 1 1 1 1 0 0 0
0 0 0 0 0 0 0 0 0 0 0 0 0 0 1 1 1 1 1 1 2 2 1 1 1 1 1 0 0 0 0 0 0 0 0 0 0 0 0 0 0 0 0 0 0 0 0 0 0
0 0 0 0 0 0 0 0 0 0 0 0 0 0 0 0 1 1 1 1 1 1 1 1 1 1 1 1 1 1 1 0 0 0 0 0 0 0 1 0 0 0 0 0 0 0 0 0 0
0 0 0 0 0 0 0 0 0 0 0 0 0 0 0 0 0 1 1 1 1 1 1 1 1 1 1 1 1 1 1 0 0 0 0 0 0 0 0 0 0 0 0 0 0 0 0 0 0
0 0 0 0 0 0 0 0 0 0 0 0 0 0 0 0 0 0 1 1 1 1 1 1 1 1 1 1 1 1 0 0 0 0 0 0 0 0 0 0 0 0 0 0 0 0 0 0 0
0 0 0 0 0 0 0 0 0 0 0 0 0 0 0 0 0 1 1 1 1 1 1 1 1 1 1 1 1 1 0 0 0 0 0 0 0 0 0 0 0 0 0 0 0 0 0 0 0
0 0 0 0 0 0 0 0 0 0 0 0 0 0 0 0 0 0 1 1 1 1 1 1 1 1 1 1 1 1 0 0 0 0 0 0 0 0 0 0 0 0 0 0 0 0 0 0 0
0 0 0 0 0 0 0 0 0 0 0 0 0 0 0 0 0 0 0 1 1 1 1 1 1 1 1 1 1 1 1 0 0 0 0 0 0 0 0 0 0 0 0 0 0 0 0 0 0
0 0 0 0 0 0 0 0 0 0 0 0 0 0 0 0 0 0 0 0 0 1 1 1 1 1 1 1 1 1 1 0 0 0 0 0 0 0 0 0 0 0 0 0 0 0 0 0 0
0 0 0 0 0 0 0 0 0 0 0 0 0 0 0 0 0 0 0 0 0 0 1 1 1 1 1 1 1 1 1 1 1 0 0 0 0 0 0 0 0 0 0 0 0 0 0 0 0
0 0 0 0 0 0 0 0 0 0 0 0 0 0 0 0 0 0 0 0 0 0 0 1 1 1 1 1 1 1 1 1 1 1 0 0 0 0 0 0 0 0 0 0 0 0 0 0 0
0 0 0 0 0 0 0 0 0 0 0 0 0 0 0 0 0 0 0 0 0 0 0 0 1 1 1 1 1 1 1 1 1 1 1 0 0 0 0 0 0 0 0 0 0 0 0 0 0
0 0 0 0 0 0 0 0 0 0 0 0 0 0 0 0 0 0 0 0 0 0 0 0 0 1 1 1 1 1 1 1 1 1 1 1 0 0 0 0 0 0 0 0 0 0 0 0 0
0 0 0 0 0 0 0 0 0 0 0 0 0 0 0 0 0 0 0 0 0 0 0 0 0 0 1 1 1 1 1 1 1 1 1 0 0 0 0 0 0 0 0 0 0 0 0 0 0
0 0 0 0 0 0 0 0 0 0 0 0 0 0 0 0 0 0 0 0 0 0 0 0 0 0 0 0 1 1 1 1 1 1 1 0 0 0 0 0 0 0 0 0 0 0 0 0 0
0 0 0 0 0 0 0 0 0 0 0 0 0 0 0 0 0 0 0 0 0 0 0 0 0 0 0 0 0 0 0 0 1 1 1 0 0 0 0 0 0 0 0 0 0 0 0 0 0
0 0 0 0 0 0 0 0 0 0 0 0 0 0 0 0 0 0 0 0 0 0 0 0 0 0 0 0 0 0 0 0 0 0 1 0 0 0 0 0 0 0 0 0 0 0 0 0 0
0 0 0 0 0 0 0 0 0 0 0 0 0 0 0 0 0 0 0 0 0 0 0 0 0 0 0 0 0 0 0 0 0 0 0 1 0 0 0 0 0 0 0 0 0 0 0 0 0
0 0 0 0 0 0 0 0 0 0 0 0 0 0 0 0 0 0 0 0 0 0 0 0 0 0 0 0 0 0 0 0 0 0 0 1 0 0 0 0 0 0 0 0 0 0 0 0 0
0 0 0 0 0 0 0 0 0 0 0 0 0 0 0 0 0 0 0 0 0 0 0 0 0 0 0 0 0 0 0 0 0 0 0 1 0 0 0 0 0 0 0 0 0 0 0 0 0
0 0 0 0 0 0 0 0 0 0 0 0 0 0 0 0 0 0 0 0 0 0 0 0 0 0 0 0 0 0 0 0 0 0 0 0 0 0 0 0 0 0 0 0 0 0 0 0 0
0 0 0 0 0 0 0 0 0 0 0 0 0 0 0 0 0 0 0 0 0 0 0 0 0 0 0 0 0 0 0 0 0 0 0 0 0 0 0 0 0 0 0 0 0 0 0 0 0
Wind_Speed
11 9 6 3 3 4 6 4 1 1 3 5 5 4 5 7 6 5 3 4 6 8 8 6 6 7 7 7 7 7 7 7 7 7 8 8 8 8 9 9 10 10 10 11 12 12 12 12 11
9 7 4 3 4 5 4 4 2 4 6 4 3 2 2 5 7 6 3 4 6 7 7 7 7 7 8 8 8 7 7 7 7 7 8 8 8 8 9 9 9 10 10 11 11 11 12 11 11
9 7 4 3 5 5 2 1 5 7 6 3 2 3 3 5 5 4 4 4 6 7 7 8 8 7 8 8 7 7 7 7 7 7 7 8 8 9 9 9 9 9 10 10 11 11 11 10 10
5 4 4 5 7 4 2 2 5 4 4 2 1 2 5 6 4 5 5 4 6 7 7 8 8 8 8 7 7 7 7 7 8 8 8 8 8 9 9 9 9 9 9 10 10 10 10 10 10
4 4 5 6 7 3 1 3 3 1 1 2 2 1 5 4 6 6 5 5 6 6 7 8 8 8 7 7 7 6 6 7 8 8 8 8 8 8 8 8 8 8 9 9 9 9 10 10 9
4 3 5 6 6 3 1 1 1 1 1 1 1 1 5 5 5 5 5 4 5 6 7 7 7 7 7 7 7 7 7 7 7 7 7 7 7 7 8 8 8 8 8 8 9 9 9 9 8
4 4 7 7 5 3 1 0 0 0 1 1 2 0 6 5 5 5 5 4 5 6 6 5 4 5 6 7 6 7 7 7 7 7 7 7 7 7 7 7 8 8 8 7 8 8 8 8 7
3 4 6 6 4 2 1 1 2 2 1 3 3 1 4 5 5 5 4 4 5 5 5 4 4 3 4 4 5 6 6 7 7 7 7 6 7 6 6 6 7 7 7 7 7 7 7 7 6
3 4 6 4 3 1 2 1 2 2 1 1 1 2 6 7 6 4 3 3 4 4 4 4 3 3 2 3 5 5 5 6 6 5 5 4 3 3 4 5 6 6 6 6 6 5 5 5 4
3 4 5 3 3 2 1 1 1 1 2 2 2 4 6 6 5 4 3 3 3 3 3 3 3 3 2 2 3 2 3 3 3 2 2 1 2 3 4 5 5 5 5 5 4 4 3 2 1
3 4 3 2 3 3 2 2 0 3 3 2 2 4 6 5 4 4 4 4 3 3 3 2 2 2 2 2 2 1 1 2 2 2 2 1 2 2 2 2 2 2 3 2 2 2 1 1 1
4 4 3 2 2 2 2 2 2 3 2 2 2 3 4 4 4 4 4 3 4 4 4 3 2 2 2 2 2 1 1 1 1 2 2 2 1 1 1 1 2 1 1 1 1 1 1 2 2
6 4 3 1 1 2 3 4 4 4 3 1 1 2 3 3 3 2 2 3 4 3 3 3 3 2 2 2 1 1 1 1 2 2 2 2 2 1 1 1 1 1 1 1 1 1 1 1 1
2 2 3 3 3 3 4 5 5 6 3 3 3 3 3 3 3 2 3 3 3 4 4 3 3 2 2 2 2 1 1 1 1 1 2 2 2 2 1 1 1 1 1 1 1 1 1 1 1
2 4 5 5 5 3 2 7 8 6 5 5 4 4 3 3 2 2 3 3 3 4 4 4 3 3 3 2 2 1 1 1 1 1 2 2 2 2 2 1 1 1 1 1 1 1 1 1 1
4 5 5 5 5 5 4 7 4 5 6 6 5 4 3 3 3 2 2 2 3 3 4 4 3 3 2 2 2 2 2 2 1 1 1 2 2 2 2 2 1 1 1 1 1 1 1 1 1
6 6 6 4 5 4 6 7 4 3 5 6 5 4 4 3 3 2 2 2 3 3 4 4 4 3 3 2 2 2 2 2 1 1 1 1 2 2 2 2 2 1 1 1 1 1 1 1 1
4 5 5 4 3 4 6 9 6 4 5 5 5 4 4 4 3 3 3 2 3 3 3 3 4 3 3 2 2 2 2 1 1 1 1 1 1 2 2 2 2 2 2 1 1 1 1 1 1
4 4 6 4 1 3 7 10 9 6 6 6 5 4 4 4 3 3 3 3 3 3 3 3 4 4 3 2 2 2 2 2 1 1 1 2 1 1 2 2 2 2 2 2 1 1 1 1 1
5 6 7 3 0 2 6 11 10 8 8 7 6 5 4 3 3 3 4 3 3 2 3 4 4 4 4 3 2 2 2 2 2 2 2 2 2 2 2 3 2 2 2 2 2 2 1 0 0
8 8 6 3 2 4 5 9 8 6 5 4 4 3 3 3 3 3 3 3 3 3 3 3 4 4 4 3 2 2 2 2 1 1 1 2 2 2 2 2 2 2 2 2 2 2 1 1 1
7 3 3 2 2 3 3 6 6 6 6 7 6 5 4 3 3 3 3 3 3 3 3 3 3 3 4 4 4 4 3 3 2 2 2 2 2 2 2 2 2 2 2 2 2 2 1 2 1
2 2 1 3 3 4 5 6 8 5 6 7 6 5 4 4 3 3 2 2 2 2 2 2 3 3 3 4 4 4 3 2 2 2 3 2 2 2 2 2 2 2 2 2 2 2 2 1 1
3 1 2 3 2 7 9 8 7 5 6 5 5 5 4 4 3 2 2 2 2 2 2 2 3 3 3 4 4 4 4 3 3 3 3 2 2 2 2 2 2 2 1 2 2 2 2 1 1
3 3 2 3 5 8 5 6 8 3 3 4 5 5 4 4 4 3 2 2 2 2 2 3 3 3 4 4 3 3 3 3 4 3 3 3 2 1 2 2 2 2 1 1 1 2 2 2 2
7 5 5 4 4 3 2 8 5 3 3 3 4 4 4 4 3 3 3 3 2 2 2 3 3 3 3 4 4 3 3 2 2 3 3 3 2 2 2 2 2 2 2 1 2 1 1 1 2
5 6 2 1 2 3 6 5 3 2 3 3 4 4 4 4 3 3 2 2 2 2 3 3 3 3 3 3 3 3 3 2 2 2 2 2 2 2 2 2 2 2 2 2 2 2 2 2 2
3 1 3 4 4 5 6 6 5 6 6 6 5 5 4 3 3 3 2 2 2 2 2 2 3 3 3 3 3 3 3 3 2 2 2 2 2 2 2 2 2 2 2 2 2 1 1 2 2
5 4 5 4 4 4 4 5 1 5 7 6 6 5 4 3 3 3 2 2 2 2 2 2 2 2 3 3 3 3 3 3 2 2 2 2 2 2 3 3 2 2 2 2 2 2 2 2 2
3 5 6 5 5 5 4 6 1 2 4 4 3 3 3 3 3 3 2 2 2 2 2 2 2 2 2 3 3 3 3 3 3 2 2 2 2 2 2 2 2 2 2 2 2 3 2 3 3
Wind_Direction
297 270 255 258 245 234 240 245 259 73 64 52 33 7 14 27 31 87 113 76 90 106 114 112 91 100 100 100 96 93 93 93 93 93 96 94 91 87 86 85 80 80 80 81 80 78 75 76 77
294 285 266 241 246 241 231 220 197 73 78 71 49 5 25 72 73 97 101 75 96 106 114 109 92 99 100 100 97 92 91 90 93 95 96 95 93 90 89 88 83 82 83 85 83 80 78 78 78
277 265 255 234 239 249 273 34 85 80 75 71 66 32 25 54 76 86 92 108 107 106 111 104 97 99 102 100 99 94 89 88 91 95 95 94 95 91 91 90 86 84 85 87 85 82 80 80 78
271 240 240 245 248 254 291 3 80 101 99 98 101 92 87 51 49 77 103 111 106 103 105 106 100 99 100 99 99 95 94 95 92 91 91 92 93 92 91 91 89 88 88 89 86 83 84 82 78
242 253 237 242 246 253 313 16 62 97 127 126 131 123 95 77 79 94 108 109 104 102 104 112 101 99 98 96 98 98 102 101 95 91 87 90 92 92 91 90 90 90 90 89 87 83 87 83 77
246 248 242 240 240 219 226 354 248 202 115 39 52 163 97 93 93 101 104 103 102 100 105 115 105 103 98 93 90 93 102 102 98 94 89 87 90 94 93 92 92 91 89 88 85 85 88 84 78
260 259 255 255 251 235 190 81 332 295 198 24 351 98 116 101 93 106 104 101 99 97 98 112 122 120 105 95 88 88 92 95 95 90 88 84 83 88 90 91 93 91 90 88 86 85 89 84 78
289 276 258 254 246 247 128 110 48 353 7 37 8 350 104 113 105 106 110 104 96 92 96 102 109 117 121 116 100 93 91 91 90 86 85 86 85 85 85 88 90 91 91 88 85 86 90 86 80
275 256 255 259 264 181 128 133 82 51 57 74 68 50 88 109 116 114 114 106 104 98 102 111 112 111 112 121 120 109 101 97 95 91 94 100 104 98 93 90 90 91 91 90 88 89 93 86 76
225 245 257 313 339 354 53 36 103 186 211 206 156 104 110 124 137 145 146 146 135 125 113 113 115 110 105 115 124 126 119 118 109 105 110 111 94 92 95 94 93 90 88 85 86 91 95 81 73
230 243 277 318 10 353 345 333 333 249 261 236 181 151 143 149 160 170 173 164 152 143 128 117 119 118 114 108 121 126 129 131 121 117 118 98 92 97 104 105 101 103 105 95 92 96 64 54 48
242 261 273 292 10 332 311 303 287 259 258 357 44 115 148 169 180 184 179 160 145 146 144 130 124 118 120 120 118 117 127 132 131 131 122 111 107 106 109 119 133 128 115 117 118 103 62 57 51
236 246 261 274 319 293 294 272 269 256 254 293 36 129 166 183 187 182 159 146 143 150 149 145 136 135 130 129 120 115 117 142 138 132 139 123 119 120 114 117 128 136 126 120 110 101 87 70 64
286 270 256 238 222 232 257 264 253 244 222 221 204 199 194 185 184 172 163 162 162 161 153 142 143 148 145 142 138 129 123 120 126 131 134 131 130 134 133 120 117 124 132 131 129 115 104 81 67
253 254 252 229 215 203 237 264 233 227 211 218 216 203 186 186 183 182 175 172 172 163 154 149 151 150 156 156 153 136 131 113 104 121 125 129 127 132 132 129 127 111 102 106 101 86 82 83 74
229 235 241 202 197 191 208 257 226 199 205 217 214 205 188 191 188 176 161 151 157 151 150 150 150 154 159 157 156 136 131 126 113 102 124 137 123 120 124 129 125 108 99 99 111 116 94 84 84
213 232 236 202 191 192 213 250 242 211 212 221 216 201 193 190 186 174 157 152 154 149 146 151 152 161 160 151 150 133 127 123 118 103 95 118 127 134 130 126 117 108 101 108 129 115 111 96 58
219 232 251 229 179 208 235 250 256 241 221 223 223 213 197 193 192 169 156 151 142 147 147 148 151 154 155 147 140 133 133 131 124 117 108 114 133 138 131 124 127 119 107 92 93 113 88 102 84
285 277 273 277 243 251 250 257 256 250 237 231 226 222 208 197 180 154 145 136 132 140 154 156 152 159 155 157 163 159 165 151 131 123 135 140 145 138 130 125 135 127 132 136 120 98 103 92 96
244 257 267 278 162 269 272 271 264 242 233 226 222 217 211 190 163 150 142 137 148 163 171 166 166 167 171 174 173 151 143 139 138 137 142 145 142 140 137 139 148 148 141 139 138 120 103 59 106
233 238 250 273 322 258 272 278 243 222 212 215 214 204 198 188 181 165 158 158 168 181 183 178 171 169 172 164 146 122 109 108 129 153 159 151 142 134 130 145 145 153 153 160 156 150 138 157 280
245 239 229 252 277 267 226 282 251 214 203 206 208 204 202 191 184 172 164 167 175 185 179 174 162 165 165 163 164 161 164 172 178 163 158 154 144 132 118 127 143 149 152 155 159 162 155 146 194
225 63 211 239 249 273 234 247 266 200 214 211 197 190 186 179 175 171 173 173 174 172 169 171 158 161 161 170 174 174 176 171 150 143 145 144 140 137 134 140 148 151 147 156 164 171 169 164 176
130 129 219 233 234 251 221 215 260 211 208 189 176 173 175 173 167 165 164 161 171 158 157 164 168 168 163 167 168 173 169 159 157 158 166 159 152 143 143 142 147 155 152 165 182 181 176 187 190
189 172 195 213 217 241 195 213 246 204 175 166 164 165 166 162 163 168 174 185 180 169 172 176 175 176 167 166 167 172 169 161 168 172 172 163 164 160 170 157 163 167 169 169 171 177 186 192 202
204 208 199 216 230 250 207 230 242 151 117 118 141 157 162 158 159 168 178 192 197 184 178 183 181 178 167 168 169 167 168 166 170 169 168 167 171 175 166 167 165 172 179 180 175 183 195 204 213
191 218 243 260 282 275 240 236 254 173 165 167 171 173 185 173 169 173 171 180 183 184 184 188 184 177 172 171 163 164 169 163 160 152 154 158 158 159 155 161 164 172 179 186 184 190 200 207 220
258 224 160 195 216 246 249 228 228 194 202 194 188 189 192 181 178 177 175 179 181 180 180 182 176 177 167 165 170 166 168 170 160 148 158 159 155 151 154 164 168 170 177 187 190 196 193 206 230
190 207 213 216 231 230 259 250 260 185 183 183 188 189 183 178 178 177 176 167 154 143 146 163 169 165 161 160 161 161 164 164 157 155 160 157 147 152 165 170 174 180 183 187 197 201 192 217 237
228 214 197 205 229 226 257 269 336 104 147 163 173 174 169 174 168 160 159 154 151 152 154 164 168 158 155 152 156 159 161 160 158 158 160 147 145 157 165 166 174 194 197 197 205 215 214 224 233